W8DRH-13 Weather Reports


Display with metric or nautical units.
time (UTC)temp
F
wind
direction
speed
MPH
gust
MPH
rain 1hr
in
rain 24hr
in
rain mn
in
humidity
%
barometer
mb
20260504081106 51 182 4.0 7.0 0.00 0.00 0.00 71 1007.0
20260504080603 51 203 6.0 7.0 0.00 0.00 0.00 70 1007.1
20260504050416 50 166 0.0 0.0 0.00 0.00 0.00 73 1009.4
20260504045913 50 164 2.0 3.0 0.00 0.00 0.00 73 1009.2
20260504045408 50 164 2.0 3.0 0.00 0.00 0.00 73 1009.5
20260504044905 50 166 2.0 3.0 0.00 0.00 0.00 73 1009.3
20260504044403 50 173 3.0 6.0 0.00 0.00 0.00 74 1009.6
20260504043900 50 154 2.0 2.0 0.00 0.00 0.00 75 1009.3
20260504043356 50 154 2.0 2.0 0.00 0.00 0.00 75 1009.3
20260504042854 50 166 1.0 3.0 0.00 0.00 0.00 75 1009.6
20260504042350 50 174 2.0 3.0 0.00 0.00 0.00 75 1009.5
20260504041846 50 153 2.0 3.0 0.00 0.00 0.00 75 1009.6
20260504041343 50 196 2.0 2.0 0.00 0.00 0.00 75 1009.6
20260504040839 50 169 1.0 2.0 0.00 0.00 0.00 74 1009.7
20260504040337 50 169 1.0 2.0 0.00 0.00 0.00 74 1009.7
20260504035832 0 0.0 0.0 0.00 0.00 0.00 1009.7
20260504035330 0 0.0 0.0 0.00 0.00 0.00 1009.8
20260504034827 49 140 4.0 4.0 0.00 0.00 0.00 75 1009.8
20260504034325 49 140 4.0 4.0 0.00 0.00 0.00 75 1009.9
20260504033821 49 155 2.0 2.0 0.00 0.00 0.00 75 1009.9
20260504033320 49 159 5.0 8.0 0.00 0.00 0.00 75 1009.8
20260504032816 49 176 2.0 2.0 0.00 0.00 0.00 75 1010.0
20260504032313 49 176 2.0 2.0 0.00 0.00 0.00 75 1009.7
20260504031810 49 141 2.0 3.0 0.00 0.00 0.00 75 1010.0
20260504031307 49 161 2.0 2.0 0.00 0.00 0.00 75 1010.1
20260504030803 49 159 4.0 4.0 0.00 0.00 0.00 76 1010.0
20260504030301 49 169 3.0 3.0 0.00 0.00 0.00 76 1010.0
20260504025756 49 152 3.0 3.0 0.00 0.00 0.00 76 1010.1
20260504025254 49 143 2.0 2.0 0.00 0.00 0.00 76 1010.1
20260504024750 48 152 2.0 2.0 0.00 0.00 0.00 77 1010.3
20260504024247 48 157 3.0 3.0 0.00 0.00 0.00 77 1010.3
20260504023744 48 146 2.0 2.0 0.00 0.00 0.00 77 1010.4
20260504023240 48 143 2.0 2.0 0.00 0.00 0.00 77 1010.5
20260504022736 48 161 4.0 4.0 0.00 0.00 0.00 77 1010.4
20260504022232 48 152 2.0 2.0 0.00 0.00 0.00 77 1010.7
20260504021730 48 143 1.0 2.0 0.00 0.00 0.00 77 1010.6
20260504021227 48 155 2.0 2.0 0.00 0.00 0.00 77 1010.5
20260504020724 49 154 2.0 2.0 0.00 0.00 0.00 78 1010.7
20260504020220 49 145 1.0 1.0 0.00 0.00 0.00 77 1010.7
20260504015716 49 140 1.0 2.0 0.00 0.00 0.00 77 1010.6
20260504015213 49 151 1.0 1.0 0.00 0.00 0.00 77 1010.3
20260504014708 49 154 1.0 2.0 0.00 0.00 0.00 76 1010.6
20260504014206 50 155 1.0 1.0 0.00 0.00 0.00 76 1010.2
20260504013703 50 135 0.0 0.0 0.00 0.00 0.00 76 1010.3
20260504013201 50 134 1.0 1.0 0.00 0.00 0.00 76 1010.2
20260504012657 50 150 2.0 3.0 0.00 0.00 0.00 75 1010.4
20260504012155 50 149 3.0 3.0 0.00 0.00 0.00 75 1010.3
20260504011652 50 141 1.0 1.0 0.00 0.00 0.00 75 1010.2
20260504011148 50 139 0.0 0.0 0.00 0.00 0.00 75 1010.4
20260504010644 50 169 2.0 2.0 0.00 0.00 0.00 75 1010.3
20260504010140 50 150 0.0 0.0 0.00 0.00 0.00 75 1010.3
20260504005637 50 168 2.0 2.0 0.00 0.00 0.00 75 1010.4
20260504005134 50 152 1.0 1.0 0.00 0.00 0.00 75 1010.5
20260504004632 50 164 1.0 2.0 0.00 0.00 0.00 75 1010.5
20260504004129 50 162 2.0 2.0 0.00 0.00 0.00 74 1010.3
20260504003625 50 154 0.0 0.0 0.00 0.00 0.00 73 1010.5
20260504003122 50 162 1.0 1.0 0.00 0.00 0.00 73 1010.4
20260504002619 50 216 2.0 2.0 0.00 0.00 0.00 73 1010.5
20260504002116 50 200 0.0 0.0 0.00 0.00 0.00 72 1010.6
20260504001614 50 203 2.0 3.0 0.00 0.00 0.00 72 1010.7
20260504001109 50 220 9.0 10.0 0.00 0.00 0.00 71 1010.7
20260504000607 51 218 7.0 8.0 0.00 0.00 0.00 70 1010.6
20260504000105 51 228 8.0 9.0 0.00 0.00 0.00 70 1010.7
20260503235603 51 230 6.0 8.0 0.00 0.00 0.00 69 1010.9
20260503235059 51 229 8.0 9.0 0.00 0.00 0.00 68 1011.1
20260503234557 51 241 13.0 17.0 0.00 0.00 0.00 68 1011.0
20260503234055 52 249 10.0 13.0 0.00 0.00 0.00 67 1010.9
20260503233551 52 270 11.0 15.0 0.00 0.00 0.00 66 1011.0
20260503233047 52 257 12.0 16.0 0.00 0.00 0.00 66 1011.0
20260503232544 53 259 17.0 21.0 0.00 0.00 0.00 64 1011.3
20260503232042 53 242 12.0 15.0 0.00 0.00 0.00 63 1011.0
20260503231539 54 238 13.0 16.0 0.00 0.00 0.00 61 1010.8
20260503231036 54 270 17.0 21.0 0.00 0.00 0.00 58 1010.9
20260503230532 55 253 12.0 15.0 0.00 0.00 0.00 56 1010.8
20260503230030 57 266 15.0 17.0 0.00 0.00 0.00 52 1010.6
20260503225527 58 234 10.0 11.0 0.00 0.00 0.00 45 1010.4
20260503225021 58 224 12.0 14.0 0.00 0.00 0.00 45 1010.3
20260503224520 58 222 10.0 14.0 0.00 0.00 0.00 45 1010.5
20260503224017 59 216 7.0 9.0 0.00 0.00 0.00 45 1010.6
20260503223515 59 263 7.0 8.0 0.00 0.00 0.00 44 1010.5
20260503223010 59 246 9.0 11.0 0.00 0.00 0.00 43 1010.4
20260503222509 59 247 5.0 6.0 0.00 0.00 0.00 43 1010.8
20260503222006 59 250 7.0 8.0 0.00 0.00 0.00 42 1010.6
20260503221504 59 211 6.0 8.0 0.00 0.00 0.00 43 1010.5
20260503221001 59 260 11.0 13.0 0.00 0.00 0.00 42 1010.7
20260503220457 59 199 6.0 8.0 0.00 0.00 0.00 43 1010.7
20260503215954 59 258 9.0 13.0 0.00 0.00 0.00 43 1010.8
20260503215451 59 234 8.0 10.0 0.00 0.00 0.00 43 1010.7
20260503214949 59 261 9.0 11.0 0.00 0.00 0.00 43 1010.7
20260503214447 59 214 14.0 17.0 0.00 0.00 0.00 42 1010.8
20260503213943 59 219 9.0 10.0 0.00 0.00 0.00 43 1010.8
20260503213437 60 286 8.0 10.0 0.00 0.00 0.00 42 1011.0
20260503212932 60 230 6.0 7.0 0.00 0.00 0.00 42 1010.8
20260503212430 60 276 9.0 10.0 0.00 0.00 0.00 42 1010.8
20260503211927 60 260 8.0 9.0 0.00 0.00 0.00 42 1010.8
20260503211424 60 249 8.0 9.0 0.00 0.00 0.00 42 1010.9
20260503210919 60 234 8.0 13.0 0.00 0.00 0.00 42 1010.9
20260503210416 60 211 15.0 19.0 0.00 0.00 0.00 41 1011.1
20260503205911 60 225 8.0 9.0 0.00 0.00 0.00 42 1011.1
20260503205409 60 230 6.0 9.0 0.00 0.00 0.00 43 1011.1
20260503204904 60 265 6.0 8.0 0.00 0.00 0.00 42 1011.1
20260503204402 60 242 7.0 8.0 0.00 0.00 0.00 42 1011.3
20260503203859 60 245 12.0 15.0 0.00 0.00 0.00 41 1011.5
20260503203356 60 257 11.0 14.0 0.00 0.00 0.00 41 1011.3
20260503202853 59 220 12.0 15.0 0.00 0.00 0.00 42 1011.3
20260503202351 59 227 9.0 11.0 0.00 0.00 0.00 42 1011.4
20260503201849 59 217 14.0 16.0 0.00 0.00 0.00 42 1011.4
20260503201346 59 234 7.0 8.0 0.00 0.00 0.00 41 1011.5
20260503200844 60 252 15.0 19.0 0.00 0.00 0.00 41 1011.5
20260503200339 60 245 9.0 10.0 0.00 0.00 0.00 43 1011.7
20260503195837 60 239 9.0 11.0 0.00 0.00 0.00 43 1011.8
20260503195333 60 241 9.0 10.0 0.00 0.00 0.00 41 1011.5
20260503194831 60 218 10.0 15.0 0.00 0.00 0.00 43 1011.7
20260503194326 60 293 6.0 8.0 0.00 0.00 0.00 44 1011.9
20260503193823 60 260 9.0 9.0 0.00 0.00 0.00 42 1012.0
20260503193319 61 229 7.0 8.0 0.00 0.00 0.00 41 1011.9
20260503192815 60 276 10.0 11.0 0.00 0.00 0.00 42 1012.0
20260503192310 60 225 7.0 8.0 0.00 0.00 0.00 43 1012.1
20260503191806 60 248 4.0 6.0 0.00 0.00 0.00 44 1012.0
20260503191304 60 239 13.0 15.0 0.00 0.00 0.00 42 1012.3
20260503190801 60 236 8.0 9.0 0.00 0.00 0.00 41 1012.3
20260503190258 59 243 11.0 14.0 0.00 0.00 0.00 43 1012.4
20260503185755 60 234 9.0 14.0 0.00 0.00 0.00 43 1012.6
20260503185250 59 274 7.0 9.0 0.00 0.00 0.00 44 1012.5
20260503184745 59 229 6.0 9.0 0.00 0.00 0.00 44 1012.5
20260503184241 59 227 9.0 11.0 0.00 0.00 0.00 43 1012.6
20260503183737 59 214 7.0 9.0 0.00 0.00 0.00 45 1012.9
20260503183235 59 232 13.0 16.0 0.00 0.00 0.00 43 1012.8
20260503182733 59 211 9.0 11.0 0.00 0.00 0.00 45 1012.7
20260503182232 59 247 7.0 9.0 0.00 0.00 0.00 42 1013.0
20260503181728 59 258 8.0 10.0 0.00 0.00 0.00 44 1013.1
20260503181225 59 269 9.0 10.0 0.00 0.00 0.00 42 1013.3
20260503180721 59 262 7.0 10.0 0.00 0.00 0.00 44 1013.1
20260503180220 59 231 9.0 15.0 0.00 0.00 0.00 43 1013.2
20260503175716 59 217 9.0 10.0 0.00 0.00 0.00 42 1013.3
20260503175214 59 273 8.0 10.0 0.00 0.00 0.00 44 1013.4
20260503174710 58 233 8.0 8.0 0.00 0.00 0.00 43 1013.3
20260503174207 58 222 8.0 9.0 0.00 0.00 0.00 46 1013.2
20260503173702 58 248 7.0 10.0 0.00 0.00 0.00 46 1013.4
20260503173159 59 288 9.0 11.0 0.00 0.00 0.00 44 1013.5
20260503172655 58 273 6.0 9.0 0.00 0.00 0.00 45 1013.5
20260503172153 58 267 11.0 15.0 0.00 0.00 0.00 41 1013.6
20260503171649 58 290 8.0 10.0 0.00 0.00 0.00 44 1013.8
20260503171147 58 271 5.0 7.0 0.00 0.00 0.00 44 1013.9
20260503170643 57 248 6.0 8.0 0.00 0.00 0.00 46 1013.7
20260503170140 57 302 12.0 14.0 0.00 0.00 0.00 43 1013.9
20260503150531 54 277 5.0 6.0 0.00 0.00 0.00 52 1014.9
20260503131419 46 224 3.0 4.0 0.00 0.00 0.00 63 1015.3
20260503130916 46 269 4.0 4.0 0.00 0.00 0.00 64 1015.3
20260503130414 45 254 8.0 9.0 0.00 0.00 0.00 63 1015.3
20260503110817 35 173 0.0 0.0 0.00 0.00 0.00 81 1014.9
20260503110314 34 180 0.0 0.0 0.00 0.00 0.00 82 1014.8
20260503100240 34 173 0.0 0.0 0.00 0.00 0.00 81 1014.4
20260503090159 36 215 0.0 0.0 0.00 0.00 0.00 79 1014.4
20260503081636 36 224 0.0 0.0 0.00 0.00 0.00 78 1014.4
20260503081127 36 230 0.0 0.0 0.00 0.00 0.00 78 1014.6